PORT of BASTIA

מדינה: France מדינה: France (FR)
קו רוחב / קו אורך: 42.69867° / 9.4534155° הראה במפה הראה במפה
זמן מקומי:  UTC +2
UN/LOCODE: FRBIA
כלי שייט כרגע בנמל: 1
כלי שייט צפויים: 4

הגעות ועזיבות אחרונות


שמות כלי שייט
הגעה (UTC)
הגעה (LT)
עזיבה (UTC)
עזיבה (LT)
Vessel Type: אוניית נוסעים  ARETHUSA 2014-09-22 19:57:00 2014-09-22 21:57:00
Vessel Type: גוררת,נתב  PILOTINE H 2014-09-22 19:56:00 2014-09-22 21:56:00
Vessel Type: גוררת,נתב  PILOTINE H 2014-09-22 19:06:00 2014-09-22 21:06:00 2014-09-22 19:43:00 2014-09-22 21:43:00
Vessel Type: גוררת,נתב  PILOTINE H 2014-09-22 17:32:00 2014-09-22 19:32:00 2014-09-22 19:04:00 2014-09-22 21:04:00
Vessel Type: אוניית נוסעים  MEGA EXPRESS FOUR 2014-09-22 17:58:00 2014-09-22 19:58:00 2014-09-22 19:03:00 2014-09-22 21:03:00
Vessel Type: אוניית נוסעים  MEDITERRANEE 2014-09-22 07:09:00 2014-09-22 09:09:00 2014-09-22 17:27:00 2014-09-22 19:27:00
Vessel Type: גוררת,נתב  PILOTINE H 2014-09-22 16:48:00 2014-09-22 18:48:00 2014-09-22 17:27:00 2014-09-22 19:27:00
Vessel Type: אוניית נוסעים  CORSICA MARINA SECONDA 2014-09-22 15:49:00 2014-09-22 17:49:00 2014-09-22 17:08:00 2014-09-22 19:08:00
Vessel Type: גוררת,נתב  PILOTINE H 2014-09-22 15:49:00 2014-09-22 17:49:00 2014-09-22 16:45:00 2014-09-22 18:45:00
Vessel Type: אוניית נוסעים  PIANA 2014-09-22 03:56:00 2014-09-22 05:56:00 2014-09-22 16:44:00 2014-09-22 18:44:00

כלי שייט צפויים


שמות כלי שייט
Scheduled Arrival (UTC)
לוח זמני הגעה (שעון מקומי)
הגעה משוערת (UTC)
הגעה משוערת(זמן מקומי)
Vessel Type: אוניית נוסעים  PASCAL PAOLI 2014-09-23 04:45:00 2014-09-23 06:45:00 2014-09-23 04:25:00 2014-09-23 06:25:00
Vessel Type: אוניית נוסעים  CORSICA VICTORIA 2014-09-23 05:00:00 2014-09-23 07:00:00 2014-09-23 04:31:00 2014-09-23 06:31:00
Vessel Type: אוניית נוסעים  MEGA EXPRESS FIVE 2014-09-23 05:00:00 2014-09-23 07:00:00 2014-09-23 04:27:00 2014-09-23 06:27:00
Vessel Type: אוניית נוסעים  MOBY VINCENT 2014-09-23 06:30:00 2014-09-23 08:30:00 2014-09-23 06:42:00 2014-09-23 08:42:00

Wind Forecast


    
זמן (UTC)
מהירות
Direction
Temperature
2014-09-23 00:00:00 17 knots 25° 23°C
2014-09-23 03:00:00 16 knots 58° 21°C
2014-09-23 06:00:00 19 knots 76° 20°C
2014-09-23 09:00:00 19 knots 94° 20°C
2014-09-23 12:00:00 15 knots 95° 21°C
2014-09-23 15:00:00 12 knots 85° 22°C
2014-09-23 18:00:00 11 knots 91° 22°C
2014-09-23 21:00:00 16 knots 104° 22°C
2014-09-24 00:00:00 16 knots 108° 21°C
2014-09-24 03:00:00 13 knots 108° 21°C
2014-09-24 06:00:00 13 knots 117° 21°C
2014-09-24 09:00:00 13 knots 155° 21°C
2014-09-24 12:00:00 18 knots 158° 22°C
2014-09-24 15:00:00 20 knots 161° 22°C
2014-09-24 18:00:00 17 knots 161° 22°C
2014-09-24 21:00:00 14 knots 165° 22°C